User: anonymous   Login
Location: *
(28.2408°N, 53.4600°E)
Time: 20:05:50
(UTC+00:00)
Language:

Cosmos 389 Rocket - Orbit

View from above orbital plane
View from above orbital plane
View from above satellite
View from above satellite

Ground track
Ground track

The orbit data is extracted from the following two-line orbital elements,

1  4814U 70113B   19326.46195351  .00001291  00000-0  36879-4 0  9994
2  4814  81.1445  46.2676 0023617 266.3384  93.5154 15.34958654670677
Epoch (UTC): 22 November 2019 11:05:12
Eccentricity: 0.0023617
inclination: 81.1445°
perigee height: 445 km
apogee height: 477 km
right ascension of ascending node: 46.2676°
argument of perigee: 266.3384°
revolutions per day: 15.34958654
mean anomaly at epoch: 93.5154°
orbit number at epoch: 67067

The dashed part of the orbit path shows where the satellite is in the earth's shadow,  

DLR